Location: Prescott
(34.5400°N, 112.4680°W)
Time: 17:08:05
(UTC-07:00)

Amateur Radio Satellites - All Passes

Search period start: 26 November 2014 16:38
Search period end: 27 November 2014 16:38
Location: Prescott, 34.5400°N, 112.4680°W

Satellite Date Start Highest point End Downlink Frequencies (MHz)
Time Altitude Azimuth
PHONESAT 2.4 26 Nov 16:52:43 16:56:06 32° 355° (N) 16:59:29 2401.200-2431.200
CUTE-I 26 Nov 16:54:41 16:58:11 18° 65° (ENE) 17:01:41 437.470
O/OREOS (USA 219) 26 Nov 16:58:08 17:02:08 33° 256° (WSW) 17:06:08 437.305
VERMONT LUNAR 26 Nov 17:01:26 17:04:41 30° 1° (N) 17:07:56 437.305
AO-7 26 Nov 17:06:33 17:13:44 33° 262° (W) 17:20:59 29.400- 29.500
PRISM 26 Nov 17:31:34 17:33:15 12° 93° (E) 17:34:56 437.425
Cubesat XI-IV 26 Nov 17:51:15 17:56:34 65° 74° (ENE) 18:01:53 437.490
JAS-2 26 Nov 18:03:53 18:10:38 36° 265° (W) 18:17:43 435.910
MOZHAYETS 4 26 Nov 18:09:14 18:13:27 35° 288° (WNW) 18:17:39
CUBESAT XI-V 26 Nov 18:16:36 18:19:31 16° 93° (E) 18:22:25 437.345
PHONESAT 2.4 26 Nov 18:31:51 18:35:24 40° 13° (NNE) 18:38:55 2401.200-2431.200
PCSat 26 Nov 18:31:53 18:35:39 19° 105° (ESE) 18:39:25 145.827
CUTE-I 26 Nov 18:32:36 18:37:48 51° 260° (W) 18:43:01 437.470
RS-15 26 Nov 18:35:52 18:44:34 26° 320° (NW) 18:53:21 29.354- 29.394
VERMONT LUNAR 26 Nov 18:40:02 18:43:35 52° 17° (NNE) 18:47:08 437.305
HO-68 26 Nov 18:48:33 18:51:05 12° 55° (NE) 18:53:37 435.675
GONETS M04 26 Nov 18:59:32 19:07:36 38° 75° (ENE) 19:15:32
STRAND 1 26 Nov 19:03:38 19:08:37 51° 100° (E) 19:13:32 437.568
PRISM 26 Nov 19:04:58 19:09:00 44° 287° (WNW) 19:12:59 437.425
Cubesat XI-IV 26 Nov 19:34:43 19:37:01 13° 268° (W) 19:39:20 437.490
SEEDS 26 Nov 19:47:59 19:50:09 14° 67° (ENE) 19:52:19 437.485
CUBESAT XI-V 26 Nov 19:52:45 19:57:05 39° 287° (WNW) 20:01:23 437.345
BEESAT 3 26 Nov 19:55:54 19:59:56 70° 117° (ESE) 20:04:04 437.485
BRITE-PL 26 Nov 19:59:43 20:03:52 26° 72° (ENE) 20:07:45 437.365/2234.400
AAUSAT CUBESAT 2 26 Nov 20:02:51 20:05:16 15° 68° (ENE) 20:07:41 437.432
AIST 1 26 Nov 20:07:23 20:11:44 66° 278° (W) 20:16:08
PHONESAT 2.4 26 Nov 20:10:38 20:14:18 58° 208° (SSW) 20:17:56 2401.200-2431.200
BEESAT 2 26 Nov 20:11:59 20:16:04 84° 299° (WNW) 20:20:15 435.950
PCSat 26 Nov 20:13:28 20:18:39 47° 300° (WNW) 20:23:52 145.827
CANX-2 26 Nov 20:15:15 20:19:08 38° 73° (ENE) 20:23:03 2200.000
COMPASS 1 26 Nov 20:17:33 20:21:01 26° 71° (ENE) 20:24:30 437.405
VERMONT LUNAR 26 Nov 20:18:40 20:21:59 34° 212° (SSW) 20:25:17 437.305
DOVE 4 26 Nov 20:19:39 20:23:05 21° 71° (ENE) 20:26:23 437.250
DX 1 26 Nov 20:21:50 20:23:40 13° 65° (ENE) 20:25:30 434.975-435.025
HO-68 26 Nov 20:30:25 20:37:35 76° 72° (ENE) 20:44:46 435.675
STRAND 1 26 Nov 20:44:16 20:47:20 16° 295° (WNW) 20:50:23 437.568
CINEMA 3 26 Nov 20:48:58 20:52:35 25° 71° (ENE) 20:56:06 145.822/145.860
CUTE 1.7 + AOD 2 26 Nov 20:49:26 20:53:38 87° 257° (WSW) 20:57:53 437.475
AIST 2 26 Nov 20:50:10 20:54:20 67° 300° (WNW) 20:58:36 435.215
ZACube-1 26 Nov 20:51:41 20:52:57 11° 66° (ENE) 20:54:13 437.345
GONETS M04 26 Nov 20:56:18 21:04:19 41° 273° (W) 21:12:16
RS-15 26 Nov 21:00:26 21:02:51 11° 356° (N) 21:05:15 29.354- 29.394
GOMX 1 26 Nov 21:04:06 21:08:58 87° 257° (WSW) 21:13:31 467.674
UKube-1 26 Nov 21:18:40 21:22:55 56° 74° (ENE) 21:27:12 .
AISAT 26 Nov 21:20:57 21:23:58 18° 68° (ENE) 21:26:59 437.250
SEEDS 26 Nov 21:21:40 21:25:36 40° 261° (W) 21:29:34 437.485
FUNcube-1 26 Nov 21:23:56 21:27:30 27° 72° (ENE) 21:31:02 145.935
Oscar 11 26 Nov 21:29:15 21:33:33 84° 77° (ENE) 21:37:52 145.826/435.025
AAUSAT CUBESAT 2 26 Nov 21:36:49 21:40:37 35° 262° (W) 21:44:27 437.432
DELFI C3 26 Nov 21:37:06 21:41:09 88° 77° (ENE) 21:45:15 145.870
BEESAT 3 26 Nov 21:37:36 21:38:38 11° 314° (NW) 21:39:41 437.485
BRITE-PL 26 Nov 21:37:56 21:42:15 28° 263° (W) 21:46:19 437.365/2234.400
50 SAT 26 Nov 21:44:33 21:47:43 23° 71° (ENE) 21:50:53 437.505
UWE-3 26 Nov 21:51:37 21:55:52 75° 77° (ENE) 22:00:03 435.000/436.395/437.385
CANX-2 26 Nov 21:52:59 21:55:12 14° 267° (W) 21:57:27 2200.000
CUBEBUG 2 26 Nov 21:53:18 21:57:35 88° 255° (WSW) 22:01:48 437.445
COMPASS 1 26 Nov 21:53:37 21:56:42 20° 265° (W) 21:59:48 437.405
DX 1 26 Nov 21:55:11 21:59:26 51° 260° (W) 22:03:42 434.975-435.025
DOVE 4 26 Nov 21:56:37 22:00:41 29° 262° (W) 22:04:34 437.250
HUMSAT D 26 Nov 22:01:05 22:05:02 45° 74° (ENE) 22:08:58 437.325/437.525
ISS 26 Nov 22:12:52 22:15:36 25° 130° (SE) 22:18:21 145.825
ANTELSAT 26 Nov 22:20:56 22:24:26 22° 96° (E) 22:27:58 437.575/2403.000
HO-68 26 Nov 22:21:36 22:25:50 16° 267° (W) 22:30:05 435.675
ZACube-1 26 Nov 22:24:47 22:28:53 50° 260° (W) 22:32:56 437.345
CINEMA 3 26 Nov 22:26:16 22:29:43 22° 264° (W) 22:33:05 145.822/145.860
POLYITAN 1 26 Nov 22:28:38 22:31:21 17° 94° (E) 22:34:03 437.675
VELOX 1 26 Nov 22:28:52 22:33:21 76° 258° (WSW) 22:37:50 145.980
QB50P2 26 Nov 22:30:11 22:33:00 17° 95° (E) 22:35:48 145.880/145.840
ESTCUBE 1 26 Nov 22:31:07 22:35:20 39° 72° (ENE) 22:39:34 437.505/2401.250
DUCHIFAT 1 26 Nov 22:35:23 22:38:27 19° 95° (E) 22:41:30 145.980
JUGNU 26 Nov 22:36:31 22:38:48 12° 166° (SSE) 22:41:04 437.505
TISAT 1 26 Nov 22:40:37 22:41:02 10° 65° (ENE) 22:41:27 437.305
SPROUT 26 Nov 22:51:56 22:53:47 13° 66° (ENE) 22:55:37 437.525
NANOSAT C BR1 26 Nov 22:54:19 22:58:09 33° 98° (E) 23:01:58 145.865
AISAT 26 Nov 22:56:12 23:00:18 35° 262° (W) 23:04:25 437.250
UKube-1 26 Nov 22:59:07 22:59:22 10° 268° (W) 22:59:37 .
FUNcube-1 26 Nov 23:00:48 23:03:50 19° 265° (W) 23:06:50 145.935
QB50P1 26 Nov 23:04:11 23:08:14 44° 99° (E) 23:12:16 145.935-145.965
CUBEBUG 1 26 Nov 23:04:59 23:09:27 87° 257° (WSW) 23:13:55 437.445
BUGSAT 1 26 Nov 23:09:53 23:13:44 41° 99° (E) 23:17:32 437.445
TIGRISAT 26 Nov 23:13:41 23:18:09 89° 103° (ESE) 23:22:43 435.000
RS-15 26 Nov 23:13:59 23:21:54 21° 34° (NE) 23:29:59 29.354- 29.394
50 SAT 26 Nov 23:19:48 23:22:55 22° 264° (W) 23:26:03 437.505
UNISAT 6 26 Nov 23:27:58 23:32:23 61° 285° (WNW) 23:36:53 437.425
POPSAT HIP 1 26 Nov 23:28:59 23:33:13 88° 283° (WNW) 23:37:26 437.405
HUMSAT D 26 Nov 23:39:51 23:41:03 11° 267° (W) 23:42:14 437.325/437.525
ISS 26 Nov 23:49:22 23:52:10 26° 325° (NW) 23:54:59 145.825
ITUPSAT 1 26 Nov 23:53:57 23:55:08 11° 63° (ENE) 23:56:18 437.325
ANTELSAT 26 Nov 23:57:20 00:01:11 29° 289° (WNW) 00:05:05 437.575/2403.000
CUSAT 1 27 Nov 00:00:10 00:05:12 64° 82° (E) 00:11:55 437.405
SWISSCUBE 27 Nov 00:02:43 00:05:31 16° 66° (ENE) 00:08:19 437.505
POLYITAN 1 27 Nov 00:03:34 00:07:21 32° 288° (WNW) 00:11:07 437.675
QB50P2 27 Nov 00:05:13 00:08:57 31° 288° (WNW) 00:12:41 145.880/145.840
AUBIESAT-1 27 Nov 00:06:39 00:09:56 24° 64° (ENE) 00:13:26 437.475
ESTCUBE 1 27 Nov 00:09:30 00:12:19 16° 266° (W) 00:15:09 437.505/2401.250
DUCHIFAT 1 27 Nov 00:10:43 00:14:17 27° 289° (WNW) 00:17:51 145.980
TISAT 1 27 Nov 00:12:07 00:16:20 59° 259° (W) 00:20:33 437.305
M-CUBED/EXP-1 PRIME 27 Nov 00:12:18 00:15:50 30° 65° (ENE) 00:19:40 437.505
JUGNU 27 Nov 00:23:08 00:27:05 18° 176° (S) 00:31:02 437.505
SPROUT 27 Nov 00:25:14 00:29:25 48° 260° (W) 00:33:36 437.525
DANDE 27 Nov 00:30:31 00:35:26 80° 262° (W) 00:42:07 436.750
NANOSAT C BR1 27 Nov 00:31:05 00:33:45 17° 292° (WNW) 00:36:25 145.865
BEESAT 27 Nov 00:32:02 00:36:08 29° 70° (ENE) 00:40:16 436.000
SRMSAT 27 Nov 00:36:26 00:39:41 15° 169° (S) 00:42:56 437.500
QB50P1 27 Nov 00:41:50 00:43:43 13° 293° (WNW) 00:45:35 145.935-145.965
BUGSAT 1 27 Nov 00:47:03 00:48:50 13° 293° (WNW) 00:50:36 437.445
Oscar 19 27 Nov 00:50:40 00:53:22 14° 93° (E) 00:56:03 437.125/150
MaSat-1 27 Nov 01:15:26 01:17:41 41° 249° (WSW) 01:20:01 437.345
RS-15 27 Nov 01:25:18 01:36:36 72° 59° (ENE) 01:48:24 29.354- 29.394
ITUPSAT 1 27 Nov 01:27:35 01:32:22 71° 258° (WSW) 01:37:12 437.325
STARS 27 Nov 01:36:26 01:39:22 18° 68° (ENE) 01:42:17 437.465
SWISSCUBE 27 Nov 01:38:18 01:42:56 48° 260° (W) 01:47:35 437.505
AUBIESAT-1 27 Nov 01:41:34 01:44:49 24° 261° (W) 01:48:19 437.475
CUSAT 1 27 Nov 01:45:22 01:48:16 14° 268° (W) 01:51:31 437.405
ITAMSAT 1 27 Nov 01:45:25 01:48:58 19° 94° (E) 01:52:30 435.822/435.867
M-CUBED/EXP-1 PRIME 27 Nov 01:48:09 01:50:57 18° 263° (W) 01:53:56 437.505
YUBILEINY 27 Nov 02:05:32 02:13:40 44° 88° (E) 02:21:47 435.215
BEESAT 27 Nov 02:10:04 02:13:55 24° 264° (W) 02:17:48 436.000
JUGNU 27 Nov 02:11:35 02:15:25 18° 186° (S) 02:19:16 437.505
KKS-1 27 Nov 02:17:38 02:22:05 82° 77° (ENE) 02:26:33 437.445
Gurwin Techsat 1B 27 Nov 02:23:20 02:27:44 26° 96° (E) 02:32:05 435.225
SRMSAT 27 Nov 02:24:02 02:28:10 19° 179° (S) 02:32:19 437.500
Oscar 19 27 Nov 02:27:56 02:32:59 56° 286° (WNW) 02:38:01 437.125/150
SO-50 27 Nov 02:39:55 02:43:23 22° 110° (ESE) 02:46:56 436.795
STARS 27 Nov 03:11:33 03:15:34 34° 262° (W) 03:19:35 437.465
AO-7 27 Nov 03:20:12 03:25:34 18° 94° (E) 03:30:53 29.400- 29.500
ITAMSAT 1 27 Nov 03:23:43 03:28:36 43° 288° (WNW) 03:33:26 435.822/435.867
HORYU 2 27 Nov 03:30:14 03:34:38 53° 100° (E) 03:39:01 437.375
MOZHAYETS 4 27 Nov 03:33:16 03:35:08 12° 65° (ENE) 03:37:02
RS-15 27 Nov 03:39:06 03:48:00 28° 256° (WSW) 03:57:13 29.354- 29.394
JUGNU 27 Nov 04:02:22 04:03:43 11° 196° (SSW) 04:05:03 437.505
YUBILEINY 27 Nov 04:02:37 04:10:27 36° 285° (WNW) 04:18:20 435.215
Gurwin Techsat 1B 27 Nov 04:02:58 04:07:39 33° 290° (WNW) 04:12:19 435.225
SRMSAT 27 Nov 04:13:06 04:16:40 16° 189° (S) 04:20:14 437.500
SO-50 27 Nov 04:19:41 04:23:43 32° 306° (NW) 04:27:52 436.795
BEESAT 3 27 Nov 04:20:11 04:22:55 17° 50° (NE) 04:25:37 437.485
BEESAT 2 27 Nov 04:36:13 04:39:30 22° 52° (NE) 04:42:45 435.950
ISS 27 Nov 04:45:21 04:46:09 11° 25° (NNE) 04:46:57 145.825
PCSat 27 Nov 05:04:38 05:10:02 65° 62° (ENE) 05:15:24 145.827
MOZHAYETS 4 27 Nov 05:07:21 05:11:50 56° 260° (W) 05:16:23
HORYU 2 27 Nov 05:08:53 05:10:49 13° 295° (WNW) 05:12:45 437.375
AO-7 27 Nov 05:10:38 05:19:00 79° 289° (WNW) 05:27:21 29.400- 29.500
AIST 2 27 Nov 05:15:54 05:19:37 28° 54° (NE) 05:23:17 435.215
JAS-2 27 Nov 05:18:08 05:24:42 47° 97° (E) 05:30:28 435.910
CUBESAT XI-V 27 Nov 05:18:22 05:20:03 12° 65° (ENE) 05:21:44 437.345
O/OREOS (USA 219) 27 Nov 05:27:24 05:31:37 41° 105° (ESE) 05:35:49 437.305
PRISM 27 Nov 05:52:00 05:56:12 83° 76° (ENE) 06:00:26 437.425
BEESAT 3 27 Nov 05:57:23 06:01:18 40° 246° (WSW) 06:05:10 437.485
Cubesat XI-IV 27 Nov 06:12:35 06:17:24 34° 98° (E) 06:22:11 437.490
BEESAT 2 27 Nov 06:14:08 06:17:47 29° 248° (WSW) 06:21:23 435.950
STRAND 1 27 Nov 06:16:00 06:20:58 52° 73° (ENE) 06:25:58 437.568
AIST 1 27 Nov 06:19:16 06:22:36 21° 76° (ENE) 06:25:53
ISS 27 Nov 06:20:00 06:23:17 72° 42° (NE) 06:26:34 145.825
PCSat 27 Nov 06:50:16 06:52:48 13° 257° (WSW) 06:55:20 145.827
CUBESAT XI-V 27 Nov 06:52:15 06:56:54 62° 259° (W) 07:01:36 437.345
CUTE-I 27 Nov 06:53:14 06:58:34 87° 104° (ESE) 07:03:52 437.470
AIST 2 27 Nov 06:54:43 06:58:06 23° 249° (WSW) 07:01:26 435.215
JAS-2 27 Nov 07:03:50 07:09:16 25° 297° (WNW) 07:14:12 435.910
AO-7 27 Nov 07:06:07 07:10:27 15° 307° (NW) 07:14:48 29.400- 29.500
O/OREOS (USA 219) 27 Nov 07:08:25 07:11:10 16° 300° (WNW) 07:13:55 437.305
Cubesat XI-IV 27 Nov 07:53:01 07:57:17 25° 292° (WNW) 08:01:32 437.490
GONETS M04 27 Nov 07:55:39 08:03:58 49° 89° (E) 08:12:20
AIST 1 27 Nov 07:56:37 08:00:10 25° 271° (W) 08:03:42
STRAND 1 27 Nov 07:57:28 08:00:24 15° 267° (W) 08:03:20 437.568
HO-68 27 Nov 08:04:19 08:08:26 16° 92° (E) 08:12:32 435.675
CUTE-I 27 Nov 08:37:21 08:37:50 10° 299° (WNW) 08:38:18 437.470
CUTE 1.7 + AOD 2 27 Nov 08:39:18 08:42:34 21° 95° (E) 08:45:49 437.475
GOMX 1 27 Nov 09:09:46 09:13:31 32° 98° (E) 09:17:24 467.674
SEEDS 27 Nov 09:09:50 09:13:54 42° 99° (E) 09:17:57 437.485
UKube-1 27 Nov 09:12:15 09:14:03 12° 93° (E) 09:15:50 .
ANTELSAT 27 Nov 09:18:55 09:20:44 13° 66° (ENE) 09:22:33 437.575/2403.000
Oscar 11 27 Nov 09:21:10 09:24:22 20° 95° (E) 09:27:34 145.826/435.025
DELFI C3 27 Nov 09:22:45 09:25:25 17° 94° (E) 09:28:05 145.870
AAUSAT CUBESAT 2 27 Nov 09:23:43 09:27:48 45° 99° (E) 09:31:51 437.432
DUCHIFAT 1 27 Nov 09:27:53 09:28:21 10° 65° (ENE) 09:28:50 145.980
CANX-2 27 Nov 09:39:50 09:44:05 63° 284° (WNW) 09:48:20 2200.000
COMPASS 1 27 Nov 09:39:55 09:44:11 84° 102° (ESE) 09:48:26 437.405
NANOSAT C BR1 27 Nov 09:45:02 09:47:50 17° 68° (ENE) 09:50:38 145.865
BRITE-PL 27 Nov 09:45:33 09:49:38 62° 284° (WNW) 09:53:51 437.365/2234.400
UWE-3 27 Nov 09:46:02 09:49:07 19° 95° (E) 09:52:14 435.000/436.395/437.385
DX 1 27 Nov 09:47:25 09:51:23 34° 98° (E) 09:55:19 434.975-435.025
CUBEBUG 2 27 Nov 09:48:31 09:52:01 24° 96° (E) 09:55:34 437.445
HO-68 27 Nov 09:49:33 09:56:43 76° 287° (WNW) 10:03:50 435.675
GONETS M04 27 Nov 09:53:22 10:00:56 32° 287° (WNW) 10:08:36
QB50P1 27 Nov 09:54:34 09:57:53 22° 70° (ENE) 10:01:11 145.935-145.965
BUGSAT 1 27 Nov 09:57:36 10:00:42 20° 69° (ENE) 10:03:48 437.445
DOVE 4 27 Nov 09:58:29 10:02:42 88° 282° (WNW) 10:07:05 437.250
TIGRISAT 27 Nov 10:09:31 10:13:38 49° 74° (ENE) 10:17:44 435.000
CUTE 1.7 + AOD 2 27 Nov 10:14:50 10:18:26 27° 289° (WNW) 10:22:03 437.475
ZACube-1 27 Nov 10:17:03 10:21:02 37° 99° (E) 10:25:04 437.345
POPSAT HIP 1 27 Nov 10:18:45 10:22:47 43° 74° (ENE) 10:26:49 437.405
CINEMA 3 27 Nov 10:23:25 10:27:40 76° 283° (WNW) 10:32:05 145.822/145.860
UNISAT 6 27 Nov 10:23:52 10:28:07 77° 77° (ENE) 10:32:23 437.425
VELOX 1 27 Nov 10:23:59 10:27:42 26° 97° (E) 10:31:24 145.980
ESTCUBE 1 27 Nov 10:30:24 10:31:23 11° 92° (E) 10:32:22 437.505/2401.250
UKube-1 27 Nov 10:46:16 10:50:25 45° 287° (WNW) 10:54:32 .
SEEDS 27 Nov 10:47:08 10:49:21 14° 293° (WNW) 10:51:34 437.485
GOMX 1 27 Nov 10:48:44 10:51:26 17° 291° (WNW) 10:54:11 467.674
AISAT 27 Nov 10:50:42 10:55:03 57° 101° (E) 10:59:22 437.250
FUNcube-1 27 Nov 10:51:27 10:55:43 82° 283° (WNW) 11:00:04 145.935
ANTELSAT 27 Nov 10:53:01 10:57:07 46° 260° (W) 11:01:13 437.575/2403.000
POLYITAN 1 27 Nov 10:53:02 10:57:17 69° 259° (WSW) 11:01:31 437.675
QB50P2 27 Nov 10:54:26 10:58:40 66° 259° (W) 11:02:54 145.880/145.840
Oscar 11 27 Nov 10:56:45 11:00:31 29° 289° (WNW) 11:04:15 145.826/435.025
DELFI C3 27 Nov 10:57:05 11:00:45 31° 288° (WNW) 11:04:24 145.870
CUBEBUG 1 27 Nov 10:58:37 11:02:02 22° 96° (E) 11:05:25 437.445
DUCHIFAT 1 27 Nov 10:59:30 11:03:42 58° 259° (W) 11:07:53 145.980
AAUSAT CUBESAT 2 27 Nov 11:01:08 11:03:03 13° 293° (WNW) 11:04:58 437.432
50 SAT 27 Nov 11:03:12 11:07:15 66° 101° (E) 11:11:19 437.505
SO-50 27 Nov 11:15:56 11:17:27 11° 44° (NE) 11:18:59 436.795
NANOSAT C BR1 27 Nov 11:19:37 11:23:27 32° 262° (W) 11:27:17 145.865
UWE-3 27 Nov 11:21:56 11:25:39 29° 288° (WNW) 11:29:25 435.000/436.395/437.385
DX 1 27 Nov 11:24:30 11:27:20 17° 293° (WNW) 11:30:09 434.975-435.025
HUMSAT D 27 Nov 11:24:47 11:28:52 53° 285° (WNW) 11:32:59 437.325/437.525
CUBEBUG 2 27 Nov 11:25:12 11:28:36 24° 289° (WNW) 11:32:06 437.445
QB50P1 27 Nov 11:30:08 11:33:38 25° 264° (W) 11:37:09 145.935-145.965
BUGSAT 1 27 Nov 11:32:20 11:36:00 28° 263° (W) 11:39:40 437.445
HO-68 27 Nov 11:40:39 11:43:13 12° 304° (NW) 11:45:47 435.675
TIGRISAT 27 Nov 11:49:39 11:50:38 11° 268° (W) 11:51:36 435.000
ZACube-1 27 Nov 11:54:34 11:57:05 16° 292° (WNW) 11:59:38 437.345
POPSAT HIP 1 27 Nov 11:57:00 11:58:51 13° 267° (W) 12:00:43 437.405
VELOX 1 27 Nov 12:00:42 12:04:08 23° 291° (WNW) 12:07:34 145.980
TISAT 1 27 Nov 12:01:19 12:04:55 27° 97° (E) 12:08:30 437.305
ESTCUBE 1 27 Nov 12:04:07 12:08:34 57° 285° (WNW) 12:12:59 437.505/2401.250
Oscar 19 27 Nov 12:04:34 12:07:28 15° 65° (ENE) 12:10:21 437.125/150
SPROUT 27 Nov 12:15:48 12:19:46 36° 98° (E) 12:23:42 437.525
YUBILEINY 27 Nov 12:21:41 12:26:51 17° 67° (ENE) 12:31:59 435.215
AISAT 27 Nov 12:29:50 12:31:09 11° 295° (WNW) 12:32:28 437.250
CUBEBUG 1 27 Nov 12:34:44 12:38:20 26° 290° (WNW) 12:41:54 437.445
SO-50 27 Nov 12:53:47 12:58:41 86° 61° (ENE) 13:03:35 436.795
ITAMSAT 1 27 Nov 13:00:09 13:03:59 21° 67° (ENE) 13:07:48 435.822/435.867
PHONESAT 2.4 27 Nov 13:02:47 13:05:37 21° 144° (SE) 13:08:28 2401.200-2431.200
VERMONT LUNAR 27 Nov 13:06:46 13:10:00 32° 147° (SSE) 13:13:16 437.305
CUSAT 1 27 Nov 13:11:52 13:14:36 64° 278° (W) 13:17:10 437.405
AUBIESAT-1 27 Nov 13:26:46 13:31:21 39° 102° (ESE) 13:35:44 437.475
ITUPSAT 1 27 Nov 13:32:11 13:36:41 39° 99° (E) 13:41:09 437.325
M-CUBED/EXP-1 PRIME 27 Nov 13:33:02 13:37:50 50° 104° (ESE) 13:42:25 437.505
TISAT 1 27 Nov 13:37:31 13:40:33 20° 291° (WNW) 13:43:36 437.305
Gurwin Techsat 1B 27 Nov 13:41:03 13:45:36 30° 69° (ENE) 13:50:09 435.225
Oscar 19 27 Nov 13:41:18 13:46:17 55° 259° (W) 13:51:19 437.125/150
SWISSCUBE 27 Nov 13:42:18 13:47:02 58° 101° (E) 13:51:43 437.505
DANDE 27 Nov 13:45:37 13:47:52 21° 281° (W) 13:49:59 436.750
SPROUT 27 Nov 13:52:58 13:55:32 16° 292° (WNW) 13:58:05 437.525
BEESAT 27 Nov 14:12:59 14:17:46 71° 285° (WNW) 14:22:30 436.000
KKS-1 27 Nov 14:13:24 14:16:45 21° 96° (E) 14:20:05 437.445
YUBILEINY 27 Nov 14:15:57 14:24:41 85° 265° (W) 14:33:21 435.215
AO-7 27 Nov 14:16:10 14:21:47 21° 56° (ENE) 14:27:24 29.400- 29.500
HORYU 2 27 Nov 14:25:48 14:29:42 31° 71° (ENE) 14:33:37 437.375
ITAMSAT 1 27 Nov 14:38:16 14:43:09 40° 261° (W) 14:48:03 435.822/435.867
MaSat-1 27 Nov 14:39:43 14:42:44 57° 112° (ESE) 14:45:29 437.345
PHONESAT 2.4 27 Nov 14:40:27 14:44:09 76° 338° (NNW) 14:47:52 2401.200-2431.200
VERMONT LUNAR 27 Nov 14:44:51 14:48:23 53° 342° (NNW) 14:51:57 437.305
AUBIESAT-1 27 Nov 15:02:21 15:05:59 21° 297° (WNW) 15:09:33 437.475
STARS 27 Nov 15:04:49 15:09:08 55° 101° (E) 15:13:26 437.465
M-CUBED/EXP-1 PRIME 27 Nov 15:09:14 15:12:22 17° 299° (WNW) 15:15:27 437.505
ITUPSAT 1 27 Nov 15:10:59 15:14:15 19° 293° (WNW) 15:17:30 437.325
Gurwin Techsat 1B 27 Nov 15:20:55 15:25:27 29° 263° (W) 15:30:01 435.225
SWISSCUBE 27 Nov 15:22:12 15:24:21 13° 295° (WNW) 15:26:30 437.505
JAS-2 27 Nov 15:26:41 15:31:35 19° 60° (ENE) 15:36:31 435.910
O/OREOS (USA 219) 27 Nov 15:40:40 15:44:57 44° 67° (ENE) 15:49:13 437.305
RS-15 27 Nov 15:44:02 15:54:53 67° 113° (ESE) 16:05:38 29.354- 29.394
KKS-1 27 Nov 15:49:33 15:53:22 29° 289° (WNW) 15:57:10 437.445
HORYU 2 27 Nov 16:03:15 16:06:23 19° 265° (W) 16:09:32 437.375
AO-7 27 Nov 16:05:19 16:13:36 81° 254° (WSW) 16:21:57 29.400- 29.500
YUBILEINY 27 Nov 16:16:37 16:20:03 13° 282° (WNW) 16:23:29 435.215
PHONESAT 2.4 27 Nov 16:19:52 16:23:16 33° 354° (N) 16:26:39 2401.200-2431.200
VERMONT LUNAR 27 Nov 16:24:02 16:27:17 30° 359° (N) 16:30:32 437.305
